Theta_e
344 346 346 344 344 345 346 347 348 347 348 349 349 350 350 349 346 345 345 343 341 343 342 342 342 344 346 348 348 345 332 323 326 328 327 328 330 331 331 331 335 338
344 346 346 346 345 344 345 347 347 347 348 350 350 351 351 349 346 344 343 341 342 343 342 341 343 345 348 348 347 342 329 323 326 328 327 328 329 330 332 333 334 336
343 345 346 345 344 343 345 347 348 348 348 350 350 350 351 350 348 344 341 341 342 342 341 342 343 345 347 347 346 340 327 323 326 328 327 327 328 330 332 334 333 332
345 346 346 345 344 344 344 346 348 348 348 349 350 351 351 350 348 343 341 343 343 342 342 343 344 346 347 346 346 338 326 323 326 327 327 326 328 330 332 334 332 328
347 347 347 345 345 344 343 345 348 349 349 349 350 352 351 347 345 343 342 343 344 343 343 344 344 347 347 346 345 336 325 323 326 327 327 326 327 329 331 333 331 329
348 347 347 345 344 345 343 343 346 349 349 350 350 351 351 347 344 344 344 344 344 344 344 345 345 347 348 346 344 335 324 323 326 327 327 326 326 327 328 330 330 329
347 347 345 344 343 343 342 342 345 347 349 350 350 351 351 347 343 344 344 344 344 345 346 346 346 348 348 346 344 334 324 324 326 326 327 327 325 328 329 330 331 331
348 348 345 343 343 344 342 340 343 347 349 349 350 351 349 346 344 344 344 345 345 345 346 346 347 348 348 347 343 333 324 324 325 326 328 326 325 330 334 335 336 335
346 346 345 342 344 345 343 341 343 346 348 350 351 351 348 344 344 344 344 345 346 345 347 347 347 349 348 346 342 331 323 324 326 326 328 328 327 332 335 337 338 338
345 345 344 343 345 345 344 343 343 345 349 351 351 352 351 345 343 344 344 345 346 346 346 346 348 348 347 346 342 331 323 324 326 326 328 328 328 332 334 337 339 338
344 344 343 343 346 346 345 344 343 347 351 351 347 348 349 345 342 342 344 344 345 346 346 347 348 349 348 346 341 330 323 324 325 325 326 326 326 327 330 334 337 337
344 343 344 343 345 345 346 347 347 348 349 344 338 340 343 342 341 341 342 344 345 345 346 346 348 349 348 346 341 330 323 324 326 325 326 325 324 325 327 330 334 336
343 344 344 344 344 343 345 348 347 344 341 336 334 336 337 339 340 341 343 345 344 344 346 346 348 350 348 346 341 331 323 324 326 325 325 324 323 323 323 326 329 334
343 344 344 343 344 343 342 344 343 340 338 336 334 334 335 337 338 341 345 346 344 343 346 347 349 350 348 346 342 331 323 324 325 325 325 322 320 320 319 319 323 330
343 344 344 343 343 343 343 342 342 340 340 337 334 334 335 335 337 344 347 345 344 344 345 348 349 350 348 345 341 332 324 323 325 325 324 320 316 316 315 316 320 326
344 344 343 343 343 343 343 342 342 341 341 338 336 334 334 334 340 346 347 345 345 345 345 349 350 350 349 345 342 335 324 323 325 325 323 317 312 312 313 313 317 321
344 344 343 343 342 342 342 343 342 341 341 339 338 335 333 336 343 347 347 345 346 345 346 349 350 350 349 346 343 336 325 322 325 325 323 316 310 310 311 312 316 319
344 344 344 342 342 342 342 343 342 341 341 341 340 336 334 337 345 347 346 346 346 346 347 349 350 350 349 346 344 338 327 322 323 325 322 315 310 310 310 312 318 319
344 345 345 343 342 341 342 342 341 340 340 341 340 336 334 339 345 347 346 347 347 346 348 349 350 351 349 346 344 340 329 321 323 325 321 313 310 310 311 314 319 318
346 346 346 344 341 342 342 342 342 340 342 342 340 336 334 338 344 346 346 347 347 346 348 349 349 350 349 346 344 341 332 322 322 325 321 314 310 309 312 316 318 321
347 346 346 344 342 342 342 342 342 342 343 343 341 337 334 336 343 346 346 345 345 346 347 348 349 349 349 347 344 342 334 322 322 324 320 314 310 309 314 315 318 327
347 347 346 344 342 341 341 342 342 342 344 345 342 338 335 336 341 345 346 345 345 346 347 348 349 349 349 347 344 342 335 324 321 324 319 314 310 310 315 315 320 331
346 346 346 344 343 342 341 342 343 344 346 345 343 340 337 338 341 344 345 345 345 347 348 348 349 349 349 348 345 343 336 325 321 323 319 312 309 311 314 314 320 330
348 348 348 347 346 345 343 343 344 345 346 346 345 344 342 341 343 344 345 345 345 348 348 348 349 350 350 348 345 343 338 326 322 323 319 312 310 312 316 318 320 322
351 351 350 351 352 351 350 349 348 346 346 347 348 347 346 346 347 347 347 346 347 349 349 349 350 350 350 348 345 343 339 327 321 323 318 311 312 314 317 321 321 319
348 349 350 351 353 353 352 352 352 351 350 350 349 349 349 349 350 349 348 348 348 349 350 350 350 350 350 348 345 344 339 328 322 322 318 312 312 315 316 319 321 322
Wind_Speed
13 12 11 10 11 11 10 10 9 8 7 6 5 3 3 3 3 4 5 7 9 10 11 12 12 13 16 18 19 20 17 13 12 11 12 13 12 11 12 13 11 9
14 14 12 11 11 12 13 12 10 9 8 7 6 4 4 4 4 4 6 7 8 10 10 11 12 14 16 18 20 20 16 13 11 10 11 11 11 11 11 13 13 10
16 15 14 12 11 12 13 13 11 10 8 8 7 5 4 4 4 5 5 5 8 9 9 10 11 13 15 18 19 18 14 12 10 9 10 11 11 11 11 11 13 12
17 16 14 13 13 12 13 13 12 11 10 9 8 7 6 5 5 6 4 4 7 9 8 8 10 12 15 17 19 17 13 11 9 8 9 10 10 11 10 10 12 13
17 16 15 15 14 13 13 14 13 12 11 10 8 7 8 6 5 5 4 4 7 8 7 7 9 12 14 17 18 16 12 10 8 7 8 9 10 10 10 10 11 13
16 17 17 16 15 14 13 14 14 12 11 11 9 8 8 7 5 5 4 5 7 8 6 6 9 11 14 16 17 14 11 9 8 6 7 8 8 9 9 10 11 12
16 17 18 16 15 14 14 14 14 13 12 11 10 9 9 8 6 5 4 5 7 7 5 5 8 11 13 15 16 13 9 7 6 6 6 7 7 7 7 8 9 11
17 18 18 16 14 14 15 15 15 14 12 12 11 11 11 9 7 6 5 5 6 5 4 5 7 10 13 15 15 12 8 7 6 5 5 6 7 6 5 6 7 8
20 20 19 16 15 15 15 15 15 14 13 12 11 11 11 10 8 7 6 5 5 4 4 5 6 9 12 14 14 10 7 6 5 5 4 5 6 5 5 5 6 6
21 21 20 17 16 16 15 15 16 14 13 14 13 11 11 11 9 8 7 6 5 4 4 5 6 9 11 14 13 9 6 5 5 4 3 3 3 3 3 4 5 5
21 21 20 18 17 17 15 15 16 15 15 17 16 13 13 13 10 9 9 7 6 5 5 5 6 8 11 13 12 8 5 4 4 3 2 2 3 3 3 3 4 4
21 21 20 19 19 19 16 15 16 17 18 19 18 16 16 15 11 10 10 9 8 7 6 6 6 8 10 12 12 8 4 3 3 3 2 2 3 3 3 3 4 4
21 20 19 18 19 19 17 17 18 18 18 18 18 17 16 15 12 12 12 11 10 8 7 6 6 8 10 12 11 8 4 3 3 3 3 3 3 3 3 3 3 3
21 20 19 18 18 19 19 19 19 17 17 17 17 17 16 15 14 13 13 13 11 10 8 6 6 7 10 11 10 7 4 2 2 2 3 3 3 3 3 3 3 3
21 20 19 18 18 19 20 20 19 16 16 17 17 17 17 16 15 14 14 14 12 10 8 7 6 7 9 10 10 7 4 2 2 2 2 3 3 2 3 3 2 1
21 21 19 18 18 19 20 20 19 17 17 17 17 17 18 17 16 15 15 13 11 10 8 7 7 7 9 10 9 7 5 3 1 1 2 3 2 2 3 4 3 2
21 20 18 18 18 19 20 20 19 18 17 17 18 18 18 18 17 16 14 13 11 10 8 8 8 8 8 10 9 7 4 3 2 2 2 3 3 2 3 4 4 3
20 18 17 18 19 20 20 19 18 18 18 18 18 18 18 19 18 16 14 13 12 10 9 10 9 8 9 10 9 7 5 3 2 2 2 3 3 3 3 4 4 2
19 17 16 17 19 21 20 19 18 18 18 18 18 18 19 20 19 17 14 13 12 10 10 11 10 8 9 10 10 8 5 3 3 2 3 4 4 4 4 3 3 1
19 16 16 18 20 21 20 19 19 18 18 17 17 18 20 21 21 18 15 14 12 11 11 11 10 9 9 10 10 8 6 4 3 3 4 5 5 4 3 3 1 1
17 15 16 18 20 20 20 20 19 17 16 17 18 19 20 22 21 19 17 14 13 12 13 13 11 10 10 10 9 9 7 4 4 4 5 5 5 4 3 2 1 2
14 13 15 17 19 20 20 19 18 17 16 16 18 19 21 22 22 20 18 16 14 13 14 15 13 11 11 10 10 9 7 5 5 5 5 6 6 5 4 2 2 4
12 12 14 16 18 18 18 18 17 17 16 17 18 20 21 22 22 20 19 17 16 15 15 16 15 12 11 10 10 10 8 6 6 6 6 7 6 5 4 2 2 4
11 12 12 12 14 14 15 16 16 16 17 16 18 19 20 21 20 20 19 18 17 16 16 17 16 14 12 11 10 10 9 8 8 8 8 8 7 6 5 2 2 4
7 9 8 7 8 9 10 11 12 13 15 16 17 19 20 20 19 19 19 18 18 17 17 18 18 15 13 11 10 10 10 9 9 9 10 9 8 7 5 3 3 4
5 6 7 5 4 4 5 6 8 10 12 14 16 18 20 20 19 19 19 18 18 18 18 19 19 16 14 12 11 11 11 11 10 10 11 11 9 7 6 4 5 5
Wind_Direction
217 217 215 217 216 210 205 206 208 210 215 222 229 241 246 254 280 299 302 306 316 326 334 343 349 354 354 354 357 359 1 10 14 22 37 45 51 48 38 36 45 49
214 216 214 211 214 214 205 202 207 211 217 224 230 239 245 261 288 298 302 313 324 330 337 346 351 353 353 353 356 358 4 13 16 26 39 48 52 49 43 36 38 47
213 216 216 212 213 217 211 207 211 213 215 222 227 227 229 251 281 288 299 319 328 331 337 346 350 351 351 352 354 359 6 12 17 30 40 47 53 51 50 44 37 42
215 214 214 214 214 215 213 212 214 216 218 222 224 223 220 232 269 283 289 314 324 328 335 345 349 349 349 350 353 358 6 12 17 31 40 45 52 53 53 48 38 40
214 212 210 213 216 215 213 212 213 216 219 220 221 223 230 240 264 275 280 308 319 322 331 345 349 348 347 348 353 359 5 11 15 28 41 46 51 53 53 50 41 38
212 212 211 213 217 217 214 212 214 216 217 220 222 223 233 244 251 255 271 304 314 318 330 348 349 346 345 346 352 358 1 7 12 24 42 47 48 49 49 48 43 38
209 213 215 215 219 220 217 214 215 216 217 220 220 220 230 239 240 239 254 291 308 315 327 347 348 343 342 344 351 356 357 4 12 23 41 46 46 49 49 46 43 40
208 213 217 215 214 217 218 215 214 215 217 219 219 222 230 232 231 233 245 281 298 304 318 341 345 340 339 342 347 353 354 4 15 23 37 37 36 43 47 49 45 40
214 218 219 215 211 213 216 214 213 215 218 218 218 224 227 223 224 232 243 268 282 290 312 332 339 337 337 340 345 349 351 4 18 23 35 35 33 42 49 54 50 40
219 219 219 216 212 212 213 212 212 214 218 219 215 216 223 224 225 233 238 253 266 277 302 320 331 335 335 337 341 346 348 4 20 22 36 37 29 46 55 57 55 41
217 216 218 217 214 212 212 213 212 211 218 223 219 216 222 227 231 233 234 245 259 269 290 309 323 330 333 334 337 342 345 4 23 18 23 9 348 9 41 52 55 41
217 215 217 217 215 216 213 211 212 214 220 227 225 222 225 229 232 233 233 241 253 263 278 296 315 327 331 331 332 337 341 1 22 16 8 352 339 352 17 38 55 52
218 215 216 218 219 221 218 214 217 223 228 231 229 225 225 226 227 229 231 236 247 257 268 286 306 321 328 328 328 331 336 356 22 14 358 341 332 344 356 11 44 61
219 217 217 218 221 223 223 223 225 229 231 232 229 224 222 222 221 224 229 233 242 253 262 276 296 313 324 325 323 326 333 347 12 10 351 331 327 334 338 346 13 49
219 220 220 219 221 222 224 226 228 228 229 230 229 224 221 218 214 218 227 232 238 250 258 268 286 306 318 320 319 324 330 333 354 355 331 319 321 323 324 333 354 27
220 224 225 223 223 222 222 225 227 227 228 230 228 224 221 215 210 217 228 231 237 249 257 265 279 295 310 315 316 319 323 322 327 329 317 307 301 306 314 320 327 310
222 227 229 227 223 219 219 222 225 225 228 230 228 225 220 212 209 218 228 232 237 247 256 263 272 288 303 310 312 315 317 308 294 299 302 289 282 295 302 308 322 319
223 227 228 224 218 215 215 218 222 223 226 229 229 226 219 212 212 221 229 232 235 243 254 262 268 281 297 306 309 310 307 291 276 281 281 272 269 281 290 302 319 318
221 224 224 221 215 211 211 214 219 222 224 229 230 227 220 214 215 222 229 233 235 240 251 260 266 275 290 303 306 304 298 283 263 252 260 262 258 268 288 304 312 246
219 224 224 219 213 210 210 211 216 221 224 228 230 228 223 218 219 224 230 234 237 242 249 257 266 272 284 299 301 298 293 281 257 242 245 250 255 267 283 285 277 145
218 226 226 219 213 211 210 211 214 219 224 228 229 228 225 222 222 226 231 236 242 246 250 257 264 268 278 291 295 291 288 275 251 239 239 246 252 262 268 253 209 141
219 230 228 220 214 211 212 214 216 218 222 227 229 229 227 224 225 229 233 239 247 249 251 256 260 263 272 284 288 284 281 269 248 234 232 243 249 251 252 235 177 152
215 221 220 216 211 211 215 219 222 222 223 225 229 229 227 225 227 231 235 240 247 249 250 254 257 260 265 276 281 278 272 260 245 231 227 236 239 239 240 225 172 162
203 204 206 211 211 211 216 219 223 225 225 226 228 229 227 226 227 232 236 241 249 251 251 252 254 254 259 268 274 271 266 254 237 226 226 228 228 232 233 216 177 176
182 186 187 203 219 226 230 229 232 236 233 230 228 227 227 227 228 232 236 242 251 253 249 249 249 248 252 263 268 265 260 249 232 225 225 222 223 232 230 204 185 190
160 166 169 187 210 220 229 231 239 251 247 237 233 233 232 231 231 236 241 247 254 254 246 245 247 247 249 258 263 261 257 245 230 224 223 221 223 227 222 202 184 188